• In Hungary
  • List of Countries
  • For 7 days
  • Water Temperature
  • Satellite Maps
  • Weather Map
  • News
  • Weather Widgets
  • user-avatar
    Login

    Hourly Weather Rajchotka

    Today, 17 January, Wednesday

    Time Temperature Precipitation Wind Pressure Humidity
    00:00 -2°C° 0.4 mm 7 mps 722 mmHg 79%
    01:00 -2°C° 0 mm 8 mps 722 mmHg 79%
    02:00 -2°C° 0 mm 7 mps 722 mmHg 81%
    03:00 -2°C° 0 mm 6 mps 722 mmHg 82%
    04:00 -2°C° 0 mm 5 mps 722 mmHg 83%
    05:00 -2°C° 0 mm 5 mps 722 mmHg 85%
    06:00 -2°C° 0 mm 5 mps 722 mmHg 86%
    07:00 -3°C° 0 mm 4 mps 722 mmHg 88%
    08:00 -2°C° 0 mm 4 mps 722 mmHg 85%
    09:00 -2°C° 0 mm 4 mps 722 mmHg 82%
    10:00 -1°C° 0 mm 4 mps 722 mmHg 80%
    11:00 -1°C° 0 mm 4 mps 722 mmHg 77%
    12:00 0°C° 0 mm 4 mps 722 mmHg 75%
    13:00 0°C° 0 mm 4 mps 722 mmHg 72%
    14:00 0°C° 0 mm 3 mps 723 mmHg 76%
    15:00 0°C° 0 mm 3 mps 723 mmHg 79%
    16:00 -1°C° 0 mm 3 mps 723 mmHg 83%
    17:00 -1°C° 0 mm 3 mps 724 mmHg 84%
    18:00 -1°C° 0 mm 3 mps 724 mmHg 85%
    19:00 -2°C° 0 mm 4 mps 724 mmHg 85%
    20:00 -2°C° 0 mm 4 mps 725 mmHg 85%
    21:00 -2°C° 0 mm 5 mps 725 mmHg 85%
    22:00 -3°C° 0 mm 6 mps 725 mmHg 85%
    23:00 -2°C° 0.1 mm 5 mps 726 mmHg 85%

    Tomorrow, 18 January, Thursday

    Time Temperature Precipitation Wind Pressure Humidity
    00:00 -2°C° 0.1 mm 5 mps 726 mmHg 85%
    01:00 -2°C° 0.1 mm 5 mps 727 mmHg 84%
    02:00 -2°C° 0.1 mm 5 mps 727 mmHg 84%
    03:00 -2°C° 0.1 mm 5 mps 728 mmHg 83%
    04:00 -2°C° 0.1 mm 5 mps 728 mmHg 82%
    05:00 -2°C° 0 mm 5 mps 729 mmHg 83%
    06:00 -2°C° 0 mm 5 mps 730 mmHg 83%
    07:00 -2°C° 0 mm 5 mps 730 mmHg 84%
    08:00 -2°C° 0 mm 5 mps 731 mmHg 81%
    09:00 -2°C° 0 mm 5 mps 731 mmHg 79%
    10:00 -2°C° 0 mm 6 mps 731 mmHg 77%
    11:00 -1°C° 0 mm 5 mps 731 mmHg 74%
    12:00 -1°C° 0 mm 5 mps 731 mmHg 71%
    13:00 0°C° 0 mm 5 mps 730 mmHg 68%
    14:00 -1°C° 0 mm 4 mps 730 mmHg 69%
    15:00 -1°C° 0 mm 4 mps 729 mmHg 71%
    16:00 -2°C° 0 mm 4 mps 728 mmHg 72%
    17:00 -1°C° 0.3 mm 5 mps 727 mmHg 72%
    18:00 -2°C° 0.3 mm 6 mps 726 mmHg 72%
    19:00 -2°C° 0.3 mm 7 mps 724 mmHg 72%
    20:00 -1°C° 0.9 mm 7 mps 724 mmHg 74%
    21:00 -1°C° 0.9 mm 7 mps 723 mmHg 77%
    22:00 0°C° 0.9 mm 8 mps 722 mmHg 79%
    23:00 0°C° 0.2 mm 8 mps 722 mmHg 77%

    Day after tomorrow, 19 January, Friday

    Time Temperature Precipitation Wind Pressure Humidity
    00:00 0°C° 0.2 mm 8 mps 722 mmHg 75%
    01:00 0°C° 0.2 mm 8 mps 721 mmHg 73%
    02:00 -1°C° 0.1 mm 9 mps 721 mmHg 72%
    03:00 -1°C° 0.1 mm 9 mps 721 mmHg 72%
    04:00 -3°C° 0.1 mm 10 mps 721 mmHg 71%
    05:00 -3°C° 0.2 mm 10 mps 722 mmHg 73%
    06:00 -3°C° 0.2 mm 10 mps 723 mmHg 75%
    07:00 -3°C° 0.2 mm 10 mps 724 mmHg 77%
    08:00 -3°C° 0.2 mm 10 mps 725 mmHg 77%
    09:00 -3°C° 0.2 mm 10 mps 726 mmHg 77%
    10:00 -3°C° 0.2 mm 10 mps 727 mmHg 76%
    11:00 -3°C° 0.1 mm 9 mps 728 mmHg 75%
    12:00 -3°C° 0.1 mm 9 mps 729 mmHg 74%
    13:00 -3°C° 0.1 mm 9 mps 730 mmHg 74%
    14:00 -2°C° 0 mm 7 mps 730 mmHg 75%
    15:00 -3°C° 0 mm 6 mps 731 mmHg 77%
    16:00 -2°C° 0 mm 5 mps 731 mmHg 78%
    17:00 -2°C° 0 mm 4 mps 732 mmHg 81%
    18:00 -2°C° 0 mm 4 mps 732 mmHg 83%
    19:00 -2°C° 0 mm 3 mps 732 mmHg 86%
    20:00 -2°C° 0.1 mm 3 mps 733 mmHg 86%
    21:00 -3°C° 0.1 mm 4 mps 733 mmHg 86%
    22:00 -2°C° 0.1 mm 4 mps 733 mmHg 86%
    23:00 -3°C° 0.1 mm 4 mps 733 mmHg 86%

    20 January, Saturday

    Time Temperature Precipitation Wind Pressure Humidity
    00:00 -3°C° 0.1 mm 4 mps 733 mmHg 87%
    01:00 -3°C° 0.1 mm 4 mps 733 mmHg 87%
    02:00 -3°C° 0 mm 4 mps 733 mmHg 87%
    03:00 -3°C° 0 mm 4 mps 733 mmHg 88%
    04:00 -3°C° 0 mm 4 mps 733 mmHg 88%
    05:00 -4°C° 0 mm 3 mps 733 mmHg 89%
    06:00 -4°C° 0 mm 3 mps 733 mmHg 89%
    07:00 -4°C° 0 mm 3 mps 733 mmHg 89%
    08:00 -4°C° 0 mm 3 mps 733 mmHg 86%
    09:00 -2°C° 0 mm 3 mps 733 mmHg 83%
    10:00 -1°C° 0 mm 3 mps 733 mmHg 79%
    11:00 -1°C° 0 mm 3 mps 733 mmHg 78%
    12:00 +1°C° 0 mm 2 mps 732 mmHg 77%
    13:00 +1°C° 0 mm 2 mps 732 mmHg 76%
    14:00 +1°C° 0.7 mm 2 mps 732 mmHg 81%
    15:00 -1°C° 0.7 mm 2 mps 732 mmHg 86%
    16:00 -2°C° 0.7 mm 2 mps 732 mmHg 91%
    17:00 -2°C° 0.8 mm 2 mps 732 mmHg 92%
    18:00 -2°C° 0.8 mm 3 mps 733 mmHg 93%
    19:00 -2°C° 0.8 mm 3 mps 733 mmHg 94%
    20:00 -3°C° 0.3 mm 4 mps 733 mmHg 93%
    21:00 -3°C° 0.3 mm 4 mps 733 mmHg 92%
    22:00 -4°C° 0.3 mm 4 mps 734 mmHg 92%
    23:00 -4°C° 0 mm 3 mps 734 mmHg 92%

    21 January, Sunday

    Time Temperature Precipitation Wind Pressure Humidity
    00:00 -5°C° 0 mm 3 mps 734 mmHg 93%
    01:00 -5°C° 0 mm 3 mps 734 mmHg 93%
    02:00 -5°C° 0.1 mm 3 mps 734 mmHg 94%
    03:00 -5°C° 0.1 mm 3 mps 735 mmHg 94%
    04:00 -4°C° 0.1 mm 2 mps 735 mmHg 94%
    05:00 -4°C° 0.2 mm 2 mps 735 mmHg 94%
    06:00 -4°C° 0.2 mm 2 mps 736 mmHg 94%
    07:00 -3°C° 0.2 mm 2 mps 736 mmHg 94%
    08:00 -4°C° 0.1 mm 3 mps 737 mmHg 93%
    09:00 -2°C° 0.1 mm 3 mps 737 mmHg 92%
    10:00 -2°C° 0.1 mm 3 mps 738 mmHg 91%
    11:00 -2°C° 0.1 mm 3 mps 738 mmHg 90%
    12:00 -1°C° 0.1 mm 3 mps 738 mmHg 89%
    13:00 -2°C° 0.1 mm 4 mps 739 mmHg 88%
    14:00 -1°C° 0.1 mm 3 mps 739 mmHg 88%
    15:00 -2°C° 0.1 mm 3 mps 739 mmHg 89%
    16:00 -2°C° 0.1 mm 3 mps 739 mmHg 89%
    17:00 -3°C° 0 mm 2 mps 740 mmHg 90%
    18:00 -3°C° 0 mm 2 mps 740 mmHg 91%
    19:00 -4°C° 0 mm 2 mps 740 mmHg 92%
    20:00 -4°C° 0 mm 2 mps 741 mmHg 92%
    21:00 -4°C° 0 mm 2 mps 741 mmHg 92%
    22:00 -4°C° 0 mm 2 mps 741 mmHg 92%
    23:00 -4°C° 0 mm 2 mps 741 mmHg 91%

    22 January, Monday

    Time Temperature Precipitation Wind Pressure Humidity
    00:00 -4°C° 0 mm 2 mps 741 mmHg 91%
    01:00 -4°C° 0 mm 2 mps 741 mmHg 91%
    02:00 -4°C° 0 mm 2 mps 741 mmHg 91%
    03:00 -4°C° 0 mm 2 mps 741 mmHg 91%
    04:00 -5°C° 0 mm 2 mps 741 mmHg 91%
    05:00 -5°C° 0 mm 2 mps 742 mmHg 91%
    06:00 -5°C° 0 mm 2 mps 742 mmHg 92%
    07:00 -5°C° 0 mm 2 mps 742 mmHg 92%
    08:00 -5°C° 0 mm 2 mps 742 mmHg 90%
    09:00 -4°C° 0 mm 2 mps 742 mmHg 88%
    10:00 -3°C° 0 mm 2 mps 742 mmHg 87%
    11:00 -3°C° 0 mm 2 mps 742 mmHg 85%
    12:00 -2°C° 0 mm 2 mps 742 mmHg 83%
    13:00 -2°C° 0 mm 2 mps 742 mmHg 81%
    14:00 -2°C° 0 mm 2 mps 742 mmHg 83%
    15:00 -3°C° 0 mm 2 mps 742 mmHg 84%
    16:00 -4°C° 0 mm 2 mps 742 mmHg 86%
    17:00 -4°C° 0 mm 2 mps 742 mmHg 86%
    18:00 -5°C° 0 mm 2 mps 743 mmHg 85%
    19:00 -5°C° 0 mm 2 mps 743 mmHg 85%
    20:00 -5°C° 0 mm 2 mps 743 mmHg 85%
    21:00 -3°C° 0 mm 1 mps 743 mmHg 84%
    22:00 -3°C° 0 mm 1 mps 743 mmHg 83%
    23:00 -4°C° 0 mm 1 mps 744 mmHg 83%
    Show more